TimeCDT,TemperatureF,Dew PointF,Humidity,Sea Level PressureIn,VisibilityMPH,Wind Direction,Wind SpeedMPH,Gust SpeedMPH,PrecipitationIn,Events,Conditions,WindDirDegrees,DateUTC
12:56 AM,61.0,55.0,81,29.75,-9999.0,Variable,5.8,-,N/A,,Unknown,0,2013-07-10 05:56:00
1:56 AM,57.0,53.1,87,29.78,-9999.0,Calm,Calm,-,N/A,,Unknown,0,2013-07-10 06:56:00
2:56 AM,53.1,51.1,93,29.79,-9999.0,WSW,5.8,-,N/A,,Unknown,250,2013-07-10 07:56:00
3:56 AM,52.0,50.0,93,29.80,-9999.0,WSW,3.5,-,N/A,,Unknown,250,2013-07-10 08:56:00
4:56 AM,57.9,54.0,87,29.82,-9999.0,West,3.5,-,N/A,,Unknown,260,2013-07-10 09:56:00
5:56 AM,53.1,50.0,89,29.85,-9999.0,WSW,3.5,-,N/A,,Unknown,250,2013-07-10 10:56:00
6:56 AM,51.1,48.0,89,29.86,-9999.0,WSW,4.6,-,N/A,,Unknown,250,2013-07-10 11:56:00
7:56 AM,57.0,51.1,81,29.87,-9999.0,Variable,3.5,-,N/A,,Unknown,0,2013-07-10 12:56:00
8:56 AM,66.0,55.0,68,29.88,-9999.0,Variable,5.8,-,N/A,,Unknown,0,2013-07-10 13:56:00
9:56 AM,68.0,54.0,61,29.89,-9999.0,NW,6.9,-,N/A,,Unknown,310,2013-07-10 14:56:00
10:56 AM,69.1,55.0,61,29.89,-9999.0,Variable,5.8,-,N/A,,Unknown,0,2013-07-10 15:56:00
11:56 AM,73.9,53.1,48,29.89,-9999.0,Variable,4.6,-,N/A,,Unknown,0,2013-07-10 16:56:00
12:56 PM,75.0,53.1,46,29.90,-9999.0,WNW,10.4,19.6,N/A,,Unknown,290,2013-07-10 17:56:00
1:56 PM,77.0,51.1,40,29.90,-9999.0,Variable,3.5,-,N/A,,Unknown,0,2013-07-10 18:56:00
2:56 PM,78.1,48.9,36,29.89,-9999.0,NNW,10.4,17.3,N/A,,Unknown,330,2013-07-10 19:56:00
3:56 PM,79.0,48.9,35,29.88,-9999.0,NW,8.1,-,N/A,,Unknown,310,2013-07-10 20:56:00
4:56 PM,79.0,48.0,34,29.87,-9999.0,NW,8.1,-,N/A,,Unknown,310,2013-07-10 21:56:00
5:56 PM,78.1,50.0,37,29.88,-9999.0,NW,6.9,-,N/A,,Unknown,320,2013-07-10 22:56:00
6:56 PM,77.0,50.0,39,29.90,-9999.0,Variable,3.5,-,N/A,,Unknown,0,2013-07-10 23:56:00
7:56 PM,71.1,50.0,47,29.91,-9999.0,West,3.5,-,N/A,,Unknown,280,2013-07-11 00:56:00
8:56 PM,52.0,45.0,77,29.93,-9999.0,Calm,Calm,-,N/A,,Unknown,0,2013-07-11 01:56:00
9:56 PM,52.0,46.9,83,29.96,-9999.0,West,3.5,-,N/A,,Unknown,280,2013-07-11 02:56:00
10:56 PM,64.9,51.1,61,29.96,-9999.0,NW,4.6,-,N/A,,Unknown,320,2013-07-11 03:56:00
11:56 PM,64.9,51.1,61,29.96,-9999.0,NW,6.9,-,N/A,,Unknown,320,2013-07-11 04:56:00